Погода в Малышеве

Россия / Ивановская область     57°03′42″N   41°46′23″E
темп.,
°C
ветер,
м/с
пор.,
м/с
влажн.,
%
обл.,
%
осадки,
мм/ч
давл.,
гПа
погр.,
м
18 мая, ср
ср1800:00+8ссв5129196 1.3 1005668
03:00+6с499193 1.3 1007439
06:00+5с489060 0.0 1008352
09:00+9с566573 0.0 10091183
12:00+12ссз575044 0.0 10101794
15:00+12сз5657100 0.0 10101554
18:00+8сз6886100 0.4 1011947
21:00+4сз410945 0.5 1012487
19 мая, чт
чт1900:00+2з3997100 0.0 1012244
03:00+3з3893100 0.0 1011256
06:00+3зсз3798100 2.3 1010517
09:00+6сз3693100 3.1 1009911
12:00+8с577559 2.1 10111252
15:00+9ссз675948 2.5 10121614
18:00+7ссз587352 0.4 10121155
21:00+4сз4978100 0.5 1014513
20 мая, пт
пт2000:00+2сз41087100 0.0 1014365
03:00+1ссз4109729 0.1 1016339
06:00+1ссз510875 0.0 1017362
09:00+7ссз57625 0.0 10181143
12:00+10ссз574899 0.1 10172233
15:00+10сз5643100 0.3 10162321
18:00+10ссз46555 0.0 10151714
21:00+4ссз237287 0.1 101551
21 мая, сб
сб2100:00+2с368942 0.0 101496
03:000с38935 0.0 1014143
06:00+2с37765 0.0 1014254
09:00+7с465549 0.0 10131479
12:00+8ссз565099 0.1 10121622
15:00+10ссз5745100 0.1 10102112
18:00+9ссз475372 0.0 10101596
21:00+4ссз377582 0.1 1010106
22 мая, вс
вс2200:00+1ссв35745 0.0 101070
03:000ссз38755 0.0 1010135
06:00+2ссз38635 0.0 1010266
09:00+7ссз57475 0.0 10091464
12:00+10ссз57425 0.0 10091840
15:00+11ссз574128 0.0 10082002
18:00+10сз46515 0.0 10081436
21:00+4сз35755 0.0 100983